TimeCST,TemperatureF,Dew PointF,Humidity,Sea Level PressureIn,VisibilityMPH,Wind Direction,Wind SpeedMPH,Gust SpeedMPH,PrecipitationIn,Events,Conditions,WindDirDegrees,DateUTC
12:53 AM,27.0,12.0,53,30.00,10.0,South,6.9,-,N/A,,Overcast,180,2014-01-18 06:53:00
1:53 AM,28.0,14.0,56,29.95,10.0,South,9.2,-,N/A,,Overcast,180,2014-01-18 07:53:00
2:53 AM,28.0,15.1,58,29.90,10.0,South,13.8,-,N/A,,Partly Cloudy,180,2014-01-18 08:53:00
3:53 AM,28.0,15.1,58,29.86,10.0,South,9.2,-,N/A,,Clear,190,2014-01-18 09:53:00
4:53 AM,30.9,15.1,52,29.81,10.0,South,13.8,-,N/A,,Scattered Clouds,190,2014-01-18 10:53:00
5:53 AM,32.0,16.0,52,29.78,10.0,SW,16.1,-,N/A,,Overcast,220,2014-01-18 11:53:00
6:53 AM,35.1,18.0,50,29.77,10.0,WSW,11.5,-,N/A,,Overcast,240,2014-01-18 12:53:00
7:53 AM,34.0,19.0,54,29.77,10.0,WSW,10.4,-,N/A,,Mostly Cloudy,240,2014-01-18 13:53:00
8:53 AM,39.0,21.0,49,29.78,10.0,West,11.5,-,N/A,,Clear,260,2014-01-18 14:53:00
9:53 AM,43.0,23.0,45,29.79,10.0,West,18.4,26.5,N/A,,Partly Cloudy,280,2014-01-18 15:53:00
10:53 AM,46.9,25.0,42,29.80,10.0,WNW,16.1,27.6,N/A,,Partly Cloudy,290,2014-01-18 16:53:00
11:53 AM,48.9,24.1,38,29.80,10.0,WNW,26.5,35.7,N/A,,Scattered Clouds,300,2014-01-18 17:53:00
12:53 PM,46.0,24.1,42,29.80,10.0,NW,24.2,44.9,N/A,,Overcast,310,2014-01-18 18:53:00
1:53 PM,46.0,23.0,40,29.80,10.0,WNW,23.0,35.7,N/A,,Overcast,300,2014-01-18 19:53:00
2:53 PM,48.0,23.0,37,29.83,10.0,WNW,24.2,41.4,N/A,,Overcast,300,2014-01-18 20:53:00
3:53 PM,45.0,21.0,39,29.88,10.0,NW,27.6,36.8,N/A,,Overcast,320,2014-01-18 21:53:00
4:53 PM,39.0,21.0,49,29.95,10.0,NNW,27.6,35.7,N/A,,Clear,330,2014-01-18 22:53:00
5:53 PM,32.0,18.0,56,30.01,10.0,NNW,27.6,41.4,N/A,,Clear,330,2014-01-18 23:53:00
6:53 PM,28.0,16.0,61,30.08,10.0,NNW,19.6,28.8,N/A,,Clear,330,2014-01-19 00:53:00
7:53 PM,26.1,16.0,66,30.11,10.0,NNW,16.1,-,N/A,,Clear,330,2014-01-19 01:53:00
8:53 PM,25.0,16.0,69,30.13,10.0,NW,11.5,-,N/A,,Clear,310,2014-01-19 02:53:00
9:53 PM,23.0,16.0,74,30.12,10.0,NNW,10.4,-,N/A,,Clear,340,2014-01-19 03:53:00
10:53 PM,21.0,15.1,78,30.14,10.0,NNW,5.8,-,N/A,,Clear,340,2014-01-19 04:53:00
11:53 PM,21.0,15.1,78,30.14,10.0,NW,5.8,-,N/A,,Clear,310,2014-01-19 05:53:00